Regional Weather Roundup
Issued by NWS

Home | Current Version | Previous Version | Text Only | Print | Product List | Glossary Off
Versions: 1 2 3 4 5 6 7 8 9 10 11 12 13 14 15 16 17 18 19 20 21 22 23 24 25 26 27

000
ASUS45 KCYS 310410
RWRWY

WYOMING REGIONAL WEATHER ROUNDUP
NATIONAL WEATHER SERVICE CHEYENNE WY
1000 PM MDT TUE AUG 30 2016

NOTE:  "FAIR" INDICATES FEW OR NO CLOUDS BELOW 12,000 FEET
WITH NO SIGNIFICANT WEATHER AND/OR OBSTRUCTIONS TO VISIBILITY.

WYZ001-310500-
YELLOWSTONE NATIONAL PARK

CITY           SKY/WX    TMP DP  RH WIND       PRES   REMARKS
LK YELLOWSTONE   N/A     54  33  45 CALM      30.37R
W YELLOWSTONE  NOT AVBL

$$
WYZ002>013-054>058-071-098>099-310500-
NORTHERN WYOMING

CITY           SKY/WX    TMP DP  RH WIND       PRES   REMARKS
JACKSON        FAIR      61  36  39 N6        30.24R
CODY           FAIR      68  30  24 CALM      30.15S
GREYBULL       FAIR      76  31  19 E6        30.06R
WORLAND        FAIR      75  25  15 SE14      30.09R
SHERIDAN       FAIR      78  33  19 S15       30.09R
BUFFALO        FAIR      75  32  20 S15       30.22R
GILLETTE       FAIR      72  45  37 SE13      30.20R
HULETT         FAIR      72  46  40 SE10      30.23R
NEWCASTLE      FAIR      73  50  43 E12       30.24S

$$
WYZ014>020-022>026-101>103-310500-
CENTRAL WYOMING

CITY           SKY/WX    TMP DP  RH WIND       PRES   REMARKS
BIG PINEY      FAIR      61  28  28 CALM      30.32R
PINEDALE       FAIR      64  27  24 SE5       30.34R
DUBOIS         FAIR      61  27  27 CALM      30.33R
LANDER         FAIR      71  27  19 N3        30.22R
RIVERTON       FAIR      74  25  16 SE6       30.20R
CASPER         FAIR      67  46  47 SE8       30.24R
DOUGLAS        FAIR      65  43  44 SE10      30.28R

$$
WYZ021-027>030-104>119-310500-
SOUTHERN WYOMING

CITY           SKY/WX    TMP DP  RH WIND       PRES   REMARKS
EVANSTON       FAIR      68  21  16 E8        30.30R
FORT BRIDGER   FAIR      65  16  14 S8        30.33R
ROCK SPRINGS   FAIR      69  19  15 E13       30.29R
DIXON          FAIR      64  34  31 E8        30.31R
RAWLINS        FAIR      66  40  38 E13       30.34R
SARATOGA       FAIR      61  37  41 SE9       30.35S
LARAMIE        FAIR      55  46  71 SE7       30.41R
CHEYENNE       FAIR      59  53  80 SE3       30.37R
TORRINGTON     FAIR      63  55  75 E8        30.25R
PINE BLUFFS    FAIR      59  52  77 S5        30.33R

$$




USA.gov is the U.S. government's official web portal to all federal, state and local government web resources and services.